�������l�o���
Date,Time,MP-1(��Sv/h),MP-2(��Sv/h),MP-3(��Sv/h),MP-4(��Sv/h),MP-5(��Sv/h),MP-6(��Sv/h),MP-7(��Sv/h),MP-8(��Sv/h),����,����(m/s),���J
2017/04/09,00:00,1.037,1.674,1.137,1.993,1.394,0.550,1.005,0.934,��,0.9,��
2017/04/09,00:10,1.039,1.676,1.139,1.998,1.396,0.551,1.006,0.932,��,0.9,��
2017/04/09,00:20,1.039,1.680,1.138,1.996,1.396,0.552,1.007,0.934,���k��,1.5,��
2017/04/09,00:30,1.038,1.680,1.138,1.996,1.394,0.550,1.004,0.932,��,0.9,��
2017/04/09,00:40,1.038,1.676,1.138,2.000,1.394,0.549,1.004,0.933,��,0.9,��
2017/04/09,00:50,1.037,1.678,1.139,1.995,1.394,0.550,1.007,0.934,���쐼,0.8,��
2017/04/09,01:00,1.040,1.675,1.140,1.997,1.396,0.552,1.005,0.934,��,1.5,��
2017/04/09,01:10,1.041,1.681,1.137,1.995,1.394,0.552,1.006,0.933,�쐼,1.4,��
2017/04/09,01:20,1.039,1.678,1.136,1.998,1.393,0.551,1.006,0.932,���쐼,1.9,��
2017/04/09,01:30,1.038,1.682,1.136,1.995,1.395,0.552,1.007,0.935,��,1.5,��
2017/04/09,01:40,1.040,1.681,1.137,1.996,1.394,0.551,1.008,0.932,���k��,2.0,��
2017/04/09,01:50,1.038,1.679,1.138,1.993,1.394,0.552,1.006,0.936,��,1.9,��
2017/04/09,02:00,1.039,1.678,1.137,1.993,1.393,0.553,1.006,0.934,���쐼,2.0,��
2017/04/09,02:10,1.038,1.679,1.138,1.996,1.393,0.552,1.005,0.933,��,2.8,��
2017/04/09,02:20,1.037,1.676,1.138,1.995,1.394,0.551,1.008,0.934,�k��,2.3,��
2017/04/09,02:30,1.037,1.677,1.138,1.995,1.391,0.552,1.007,0.933,�k�k��,0.9,��
2017/04/09,02:40,1.038,1.676,1.136,1.994,1.392,0.550,1.007,0.934,�k,1.5,��
2017/04/09,02:50,1.036,1.675,1.136,1.995,1.395,0.550,1.006,0.933,�k�k��,3.2,��
2017/04/09,03:00,1.038,1.675,1.135,1.994,1.398,0.552,1.006,0.935,�k,3.8,��
2017/04/09,03:10,1.035,1.678,1.137,1.994,1.394,0.550,1.006,0.934,�k,3.3,��
2017/04/09,03:20,1.036,1.676,1.137,1.995,1.393,0.549,1.007,0.934,�k�k��,2.8,��
2017/04/09,03:30,1.037,1.675,1.135,1.997,1.391,0.551,1.006,0.935,�k,3.2,��
2017/04/09,03:40,1.035,1.675,1.135,1.995,1.392,0.551,1.005,0.932,�k,3.3,��
2017/04/09,03:50,1.035,1.675,1.137,1.995,1.393,0.550,1.006,0.934,�k�k��,2.6,��
2017/04/09,04:00,1.035,1.678,1.137,1.994,1.394,0.549,1.006,0.930,�k,2.5,��
2017/04/09,04:10,1.036,1.676,1.136,1.996,1.393,0.551,1.005,0.933,�k�k��,2.5,��
2017/04/09,04:20,1.037,1.676,1.136,1.996,1.391,0.551,1.006,0.933,�k�k��,3.1,��
2017/04/09,04:30,1.036,1.673,1.137,1.993,1.393,0.552,1.008,0.934,�k�k��,3.2,��
2017/04/09,04:40,1.035,1.674,1.136,1.996,1.391,0.549,1.007,0.933,�k,4.1,��
2017/04/09,04:50,1.039,1.676,1.136,1.993,1.395,0.551,1.006,0.933,�k,4.7,��
2017/04/09,05:00,1.034,1.676,1.136,1.994,1.392,0.550,1.007,0.932,�k,5.3,��
2017/04/09,05:10,1.036,1.677,1.136,1.995,1.393,0.550,1.007,0.932,�k�k��,4.8,��
2017/04/09,05:20,1.036,1.676,1.139,1.995,1.391,0.550,1.009,0.933,�k,6.2,�L
2017/04/09,05:30,1.036,1.677,1.137,1.995,1.391,0.552,1.006,0.934,�k,6.7,�L
2017/04/09,05:40,1.036,1.676,1.136,1.994,1.392,0.549,1.004,0.934,�k,6.5,��
2017/04/09,05:50,1.035,1.674,1.138,1.997,1.393,0.551,1.008,0.934,�k,6.9,��
2017/04/09,06:00,1.037,1.679,1.134,1.994,1.392,0.549,1.006,0.933,�k,6.7,��
2017/04/09,06:10,1.036,1.678,1.134,1.995,1.393,0.549,1.007,0.930,�k,6.9,��
2017/04/09,06:20,1.035,1.676,1.140,1.994,1.390,0.550,1.006,0.934,�k,7.2,��
2017/04/09,06:30,1.035,1.675,1.135,1.994,1.392,0.548,1.005,0.936,�k,6.0,��
2017/04/09,06:40,1.037,1.674,1.136,1.995,1.393,0.551,1.006,0.933,�k,5.3,��
2017/04/09,06:50,1.036,1.679,1.136,1.995,1.391,0.551,1.006,0.934,�k,4.0,��
2017/04/09,07:00,1.037,1.680,1.138,1.994,1.393,0.552,1.006,0.930,�k,2.9,��
2017/04/09,07:10,1.037,1.676,1.135,1.998,1.393,0.550,1.008,0.935,�k��,2.0,��
2017/04/09,07:20,1.038,1.679,1.137,1.995,1.395,0.551,1.006,0.932,�k,2.5,��
2017/04/09,07:30,1.038,1.676,1.137,1.997,1.394,0.550,1.005,0.933,�k�k��,2.8,��
2017/04/09,07:40,1.036,1.676,1.136,1.996,1.394,0.551,1.007,0.934,�k�k��,3.3,��
2017/04/09,07:50,1.036,1.680,1.138,1.997,1.391,0.550,1.006,0.935,�k,3.1,��
2017/04/09,08:00,1.039,1.676,1.140,1.996,1.393,0.550,1.006,0.934,�k�k��,3.3,��
2017/04/09,08:10,1.037,1.677,1.137,1.999,1.394,0.548,1.005,0.935,�k�k��,3.1,��
2017/04/09,08:20,1.038,1.680,1.138,1.995,1.392,0.551,1.006,0.933,�k�k��,3.1,��
2017/04/09,08:30,1.037,1.677,1.138,1.996,1.395,0.550,1.005,0.933,�k�k��,3.7,��
2017/04/09,08:40,1.038,1.679,1.137,1.997,1.393,0.550,1.003,0.935,�k�k��,4.9,��
2017/04/09,08:50,1.039,1.675,1.135,1.999,1.392,0.551,1.007,0.933,�k,5.9,�L
2017/04/09,09:00,1.040,1.676,1.137,1.997,1.391,0.551,1.005,0.935,�k,5.8,�L
2017/04/09,09:10,1.039,1.679,1.138,1.997,1.391,0.551,1.006,0.935,�k,5.5,��
2017/04/09,09:20,1.037,1.681,1.137,1.999,1.393,0.552,1.005,0.934,�k,4.8,��
2017/04/09,09:30,1.036,1.678,1.137,1.994,1.397,0.550,1.006,0.931,�k,5.2,��
2017/04/09,09:40,1.035,1.677,1.138,1.996,1.391,0.550,1.005,0.933,�k,4.6,��
2017/04/09,09:50,1.037,1.677,1.135,1.993,1.393,0.551,1.008,0.935,�k,3.6,�L
2017/04/09,10:00,1.037,1.672,1.138,1.995,1.392,0.552,1.006,0.933,�k,4.9,�L
2017/04/09,10:10,1.039,1.678,1.139,1.995,1.392,0.550,1.004,0.934,�k,6.3,�L
2017/04/09,10:20,1.037,1.677,1.138,1.996,1.391,0.553,1.003,0.933,�k,7.4,�L
2017/04/09,10:30,1.036,1.674,1.138,1.997,1.390,0.552,1.003,0.932,�k�k��,6.6,�L
2017/04/09,10:40,1.038,1.673,1.137,1.998,1.389,0.552,1.005,0.933,�k�k��,7.4,�L
2017/04/09,10:50,1.035,1.672,1.138,1.996,1.387,0.554,1.002,0.934,�k�k��,6.7,�L
2017/04/09,11:00,1.037,1.670,1.134,1.994,1.386,0.553,1.004,0.932,�k,6.3,�L
2017/04/09,11:10,1.033,1.667,1.132,1.992,1.384,0.551,1.001,0.931,�k,6.0,�L
2017/04/09,11:20,1.032,1.663,1.133,1.988,1.383,0.552,1.002,0.931,�k,5.3,�L
2017/04/09,11:30,1.032,1.659,1.130,1.986,1.379,0.552,1.003,0.930,�k,3.9,�L
2017/04/09,11:40,1.030,1.660,1.131,1.985,1.381,0.552,1.001,0.929,�k,4.7,�L
2017/04/09,11:50,1.029,1.658,1.132,1.988,1.379,0.551,1.000,0.928,�k,4.0,�L
2017/04/09,12:00,1.026,1.654,1.128,1.983,1.377,0.552,1.001,0.929,�k�k��,4.6,�L
2017/04/09,12:10,1.026,1.653,1.125,1.981,1.372,0.551,0.998,0.928,�k�k��,5.5,�L
2017/04/09,12:20,1.024,1.647,1.124,1.979,1.372,0.550,0.999,0.926,�k�k��,5.4,�L
2017/04/09,12:30,1.022,1.649,1.125,1.977,1.372,0.552,1.000,0.926,�k�k��,5.6,�L
2017/04/09,12:40,1.026,1.650,1.124,1.976,1.370,0.551,0.997,0.928,�k,5.7,�L
2017/04/09,12:50,1.025,1.649,1.127,1.979,1.372,0.550,0.998,0.928,�k,4.1,�L
2017/04/09,13:00,1.023,1.648,1.124,1.976,1.372,0.549,1.000,0.929,�k,3.3,�L
2017/04/09,13:10,1.021,1.650,1.123,1.975,1.370,0.549,0.999,0.929,�k,4.0,�L
2017/04/09,13:20,1.022,1.648,1.122,1.975,1.369,0.548,0.999,0.928,�k,3.5,�L
2017/04/09,13:30,1.022,1.645,1.123,1.976,1.366,0.549,0.999,0.927,�k,3.5,�L
2017/04/09,13:40,1.021,1.645,1.119,1.974,1.363,0.549,0.996,0.927,�k,3.3,�L
2017/04/09,13:50,1.020,1.644,1.120,1.973,1.366,0.552,0.997,0.926,�k�k��,3.9,�L
2017/04/09,14:00,1.019,1.645,1.120,1.972,1.365,0.551,0.995,0.926,�k��,4.3,�L
2017/04/09,14:10,1.019,1.642,1.120,1.970,1.363,0.549,0.997,0.929,�k��,3.3,��
2017/04/09,14:20,1.020,1.643,1.118,1.970,1.364,0.550,0.995,0.926,�k��,2.3,��
2017/04/09,14:30,1.018,1.643,1.118,1.971,1.365,0.548,0.997,0.925,�k,1.5,��
2017/04/09,14:40,1.019,1.646,1.119,1.974,1.364,0.548,0.998,0.927,�k�k��,1.4,��
2017/04/09,14:50,1.017,1.645,1.122,1.970,1.363,0.547,0.995,0.927,�k�k��,2.3,��
2017/04/09,15:00,1.019,1.643,1.119,1.970,1.364,0.547,0.998,0.926,���k��,2.6,��
2017/04/09,15:10,1.019,1.644,1.119,1.969,1.365,0.546,0.998,0.927,�k�k��,2.3,��
2017/04/09,15:20,1.018,1.646,1.120,1.971,1.365,0.546,0.997,0.928,���k��,1.4,��
2017/04/09,15:30,1.019,1.645,1.121,1.971,1.365,0.547,0.998,0.927,�k,1.7,��
2017/04/09,15:40,1.022,1.646,1.120,1.974,1.364,0.546,0.998,0.929,�k,2.2,��
2017/04/09,15:50,1.018,1.646,1.120,1.972,1.362,0.544,0.997,0.926,�k,2.6,��
2017/04/09,16:00,1.019,1.643,1.122,1.971,1.363,0.546,0.995,0.927,�k�k��,2.0,��
2017/04/09,16:10,1.020,1.650,1.120,1.972,1.362,0.546,0.997,0.928,�k�k��,1.5,��
2017/04/09,16:20,1.019,1.645,1.122,1.968,1.365,0.545,0.997,0.926,�k,1.2,��
2017/04/09,16:30,1.021,1.645,1.121,1.970,1.363,0.545,0.997,0.926,-,CALM,��
2017/04/09,16:40,1.017,1.649,1.121,1.970,1.364,0.546,0.998,0.927,��,0.9,��
2017/04/09,16:50,1.021,1.648,1.123,1.970,1.364,0.546,0.996,0.927,��,2.0,��
2017/04/09,17:00,1.022,1.648,1.122,1.974,1.366,0.546,0.997,0.927,�k��,6.3,��
2017/04/09,17:10,1.021,1.648,1.121,1.973,1.367,0.547,0.999,0.927,�k��,7.6,��
2017/04/09,17:20,1.021,1.648,1.123,1.974,1.367,0.548,0.998,0.929,�k��,6.8,��
2017/04/09,17:30,1.022,1.647,1.123,1.975,1.371,0.547,1.000,0.927,�k��,7.1,��
2017/04/09,17:40,1.021,1.648,1.121,1.973,1.367,0.547,0.997,0.928,�k��,8.3,��
2017/04/09,17:50,1.022,1.650,1.121,1.972,1.368,0.546,0.998,0.927,�k��,6.9,��
2017/04/09,18:00,1.023,1.648,1.123,1.973,1.366,0.545,0.997,0.930,�k��,7.6,��
2017/04/09,18:10,1.021,1.649,1.124,1.973,1.366,0.547,0.997,0.926,�k�k��,9.1,��
2017/04/09,18:20,1.021,1.649,1.120,1.974,1.367,0.546,0.997,0.926,�k��,9.6,��
2017/04/09,18:30,1.022,1.649,1.123,1.974,1.368,0.546,0.999,0.926,�k��,9.2,��
2017/04/09,18:40,1.019,1.651,1.122,1.978,1.366,0.547,0.998,0.926,�k��,7.9,��
2017/04/09,18:50,1.019,1.647,1.122,1.975,1.369,0.545,0.996,0.927,�k��,8.7,��
2017/04/09,19:00,1.021,1.653,1.121,1.975,1.369,0.544,0.997,0.927,�k�k��,10.8,��
2017/04/09,19:10,1.018,1.649,1.122,1.977,1.366,0.544,0.997,0.927,�k�k��,11.3,��
2017/04/09,19:20,1.019,1.650,1.120,1.975,1.367,0.545,1.000,0.927,�k�k��,10.3,��
2017/04/09,19:30,1.018,1.649,1.122,1.977,1.367,0.545,0.997,0.927,�k��,11.3,��
2017/04/09,19:40,1.018,1.647,1.122,1.975,1.368,0.544,0.998,0.929,�k��,9.5,��
2017/04/09,19:50,1.016,1.648,1.122,1.975,1.364,0.544,0.998,0.928,�k��,8.5,��
2017/04/09,20:00,1.018,1.647,1.119,1.976,1.368,0.543,0.998,0.927,�k��,8.8,��
2017/04/09,20:10,1.019,1.650,1.124,1.979,1.367,0.545,0.997,0.927,�k��,9.0,��
2017/04/09,20:20,1.018,1.651,1.121,1.979,1.368,0.544,0.998,0.928,�k��,8.0,��
2017/04/09,20:30,1.016,1.650,1.121,1.975,1.366,0.545,0.999,0.926,�k��,6.7,��
2017/04/09,20:40,1.017,1.648,1.122,1.974,1.368,0.543,0.999,0.927,�k�k��,5.8,��
2017/04/09,20:50,1.015,1.650,1.123,1.979,1.369,0.544,0.999,0.927,�k�k��,6.9,��
2017/04/09,21:00,1.017,1.651,1.122,1.975,1.364,0.544,1.000,0.926,�k�k��,9.8,��
2017/04/09,21:10,1.018,1.651,1.122,1.976,1.366,0.544,0.999,0.927,�k�k��,7.9,��
2017/04/09,21:20,1.016,1.650,1.123,1.977,1.366,0.545,0.999,0.926,�k�k��,8.8,��
2017/04/09,21:30,1.016,1.651,1.121,1.976,1.365,0.545,1.001,0.927,�k�k��,8.2,��
2017/04/09,21:40,1.016,1.651,1.123,1.977,1.368,0.544,1.000,0.925,�k�k��,7.4,��
2017/04/09,21:50,1.017,1.647,1.123,1.979,1.364,0.544,1.000,0.926,�k�k��,6.5,��
2017/04/09,22:00,1.018,1.651,1.122,1.977,1.368,0.544,0.999,0.928,�k�k��,6.7,��
2017/04/09,22:10,1.017,1.652,1.120,1.976,1.368,0.544,0.999,0.927,�k�k��,7.2,��
2017/04/09,22:20,1.017,1.649,1.124,1.976,1.368,0.545,0.998,0.928,�k�k��,6.7,��
2017/04/09,22:30,1.016,1.649,1.121,1.978,1.367,0.544,0.999,0.929,�k��,5.7,��
2017/04/09,22:40,1.014,1.652,1.120,1.976,1.369,0.543,0.998,0.926,�k�k��,4.7,��
2017/04/09,22:50,1.017,1.652,1.122,1.976,1.367,0.544,1.000,0.925,�k�k��,6.4,��
2017/04/09,23:00,1.015,1.652,1.123,1.977,1.370,0.543,1.001,0.926,�k��,9.7,��
2017/04/09,23:10,1.015,1.652,1.121,1.978,1.368,0.543,1.000,0.928,�k��,8.6,��
2017/04/09,23:20,1.016,1.652,1.121,1.977,1.368,0.544,1.001,0.928,�k��,9.8,��
2017/04/09,23:30,1.015,1.650,1.122,1.977,1.368,0.545,1.000,0.928,�k��,9.1,��
2017/04/09,23:40,1.016,1.652,1.123,1.980,1.369,0.544,0.999,0.928,�k��,8.0,��
2017/04/09,23:50,1.016,1.651,1.123,1.979,1.369,0.544,1.002,0.930,�k��,7.6,��
